Location: *
(46.1006°N, 1.8394°E)
Time: 12:09:21
(UTC+00:00)

ATLAS 2AS CENTAUR R/B - Pass Details

Date: 20 September 2019
Orbit: 919 x 1292 km, 63.6° (Epoch: 18 October)

Event Time Altitude Azimuth Distance (km) Brightness Sun altitude
Rises 19:01:58 0° 319° (NW) 4,203 6.8 -12.3°
Reaches altitude 10° 19:04:53 10° 317° (NW) 3,194 6.1 -12.8°
Maximum altitude 19:12:22 60° 240° (WSW) 1,313 3.4 -14.0°
Drops below altitude 10° 19:19:12 10° 162° (SSE) 2,917 4.7 -15.2°
Enters shadow 19:20:52 - 160° (SSE) 3,496 5.0 -15.5°
